User: anonymous   Login
Location: Fort Wayne
(41.1310°N, 85.1290°W)
Time: 05:36:57
(UTC-04:00)
Language:

OAO 2 Rocket - Orbit

View from above orbital plane
View from above orbital plane
View from above satellite
View from above satellite

Ground track
Ground track

The orbit data is extracted from the following two-line orbital elements,

1  3598U 68110B   18172.90896978 +.00000034 +00000-0 +12597-4 0  9991
2  3598 034.9948 049.3397 0049356 345.9965 013.9359 14.54376339599421
Epoch (UTC): 21 June 2018 21:48:54
Eccentricity: 0.0049356
inclination: 34.9948°
perigee height: 676 km
apogee height: 746 km
right ascension of ascending node: 49.3397°
argument of perigee: 345.9965°
revolutions per day: 14.54376339
mean anomaly at epoch: 13.9359°
orbit number at epoch: 59942

The dashed part of the orbit path shows where the satellite is in the earth's shadow,  

DLR